Weather History for Topeka Forbes, KS

Change the Weather History Date:

Saturday, March 8, 2014

  Actual Average Record
Temperature  
Mean Temperature 33 °F -  
Max Temperature 41 °F 53 °F 82 °F (1977)
Min Temperature 25 °F 28 °F -4 °F (1967)
Degree Days  
Heating Degree Days 32    
Moisture  
Dew Point 22 °F    
Average Humidity 66    
Maximum Humidity 81    
Minimum Humidity 47    
Precipitation  
Precipitation 0.00 in - - ()
Sea Level Pressure  
Sea Level Pressure 30.23 in    
Wind  
Wind Speed 13 mph (North)    
Max Wind Speed 18 mph    
Max Gust Speed 29 mph    
Visibility 10 miles    
Events      
Averages and records for this station are not official NWS values.
T = Trace of Precipitation, MM = Missing Value Source: NWS Daily Summary

Daily Weather History Graph

Daily Weather History Graph

Search for Another Location

Airport:

Trip Planner

Search our weather history database for the weather conditions in past years. The results will help you decide how hot, cold, wet, or windy it might be!

Date:

Astronomy

Mar. 08, 2014 Rise Set
Actual Time 6:44 AM CST 6:22 PM CST
Civil Twilight 6:18 AM CST 6:49 PM CST
Nautical Twilight 5:47 AM CST 7:20 PM CST
Astronomical Twilight 5:16 AM CST 7:51 PM CST
Moon 11:30 AM CST (3/8) 1:18 AM CST (3/8)
Length of Visible Light 12h 31m
Length of Day
11h 38m
First Quarter, 52% of the Moon is Illuminated
Mar 8
First Quarter
Mar 16
Full
Mar 23
Last Quarter
Mar 30
New
Apr 7
First Quarter

Hourly Weather History & Observations

Time (CST) Temp. Windchill Dew Point Humidity Pressure Visibility Wind Dir Wind Speed Gust Speed Precip Events Conditions
12:14 AM 32.0 °F 21.6 °F 25.0 °F 75% 30.08 in 8.0 mi North 15.0 mph 20.7 mph N/A   Overcast
12:53 AM 32.0 °F 22.1 °F 24.1 °F 73% 30.11 in 10.0 mi North 13.8 mph 21.9 mph N/A   Overcast
1:41 AM 32.0 °F 21.6 °F 23.0 °F 69% 30.11 in 10.0 mi North 15.0 mph - N/A   Overcast
1:53 AM 30.9 °F 20.2 °F 23.0 °F 72% 30.14 in 10.0 mi North 15.0 mph 19.6 mph N/A   Overcast
2:14 AM 30.9 °F 19.8 °F 23.0 °F 72% 30.13 in 10.0 mi North 16.1 mph 23.0 mph N/A   Overcast
2:25 AM 30.9 °F 21.2 °F 23.0 °F 72% 30.13 in 10.0 mi North 12.7 mph - N/A   Overcast
2:38 AM 30.9 °F 19.4 °F 21.9 °F 69% 30.13 in 10.0 mi North 17.3 mph 24.2 mph N/A   Overcast
2:51 AM 30.2 °F 18.1 °F 21.2 °F 69% 30.13 in 10.0 mi North 18.4 mph 28.8 mph N/A   Overcast
2:53 AM 30.9 °F 20.2 °F 21.9 °F 69% 30.13 in 10.0 mi North 15.0 mph 28.8 mph N/A   Overcast
3:21 AM 30.0 °F 19.1 °F 21.0 °F 69% 30.13 in 10.0 mi North 15.0 mph - N/A   Overcast
3:31 AM 30.0 °F 19.1 °F 21.0 °F 69% 30.13 in 10.0 mi North 15.0 mph 27.6 mph N/A   Overcast
3:53 AM 30.0 °F 19.1 °F 21.0 °F 69% 30.14 in 10.0 mi North 15.0 mph 25.3 mph N/A   Overcast
4:13 AM 28.9 °F 18.6 °F 21.0 °F 72% 30.13 in 10.0 mi North 12.7 mph 23.0 mph N/A   Overcast
4:53 AM 28.9 °F 18.2 °F 21.0 °F 72% 30.16 in 10.0 mi North 13.8 mph - N/A   Overcast
5:53 AM 28.9 °F 18.2 °F 19.9 °F 69% 30.20 in 10.0 mi North 13.8 mph - N/A   Overcast
6:01 AM 28.9 °F 18.2 °F 19.9 °F 69% 30.19 in 10.0 mi North 13.8 mph - N/A   Overcast
6:53 AM 28.9 °F 19.2 °F 19.9 °F 69% 30.24 in 10.0 mi North 11.5 mph 21.9 mph N/A   Overcast
7:38 AM 28.9 °F 18.2 °F 19.9 °F 69% 30.22 in 10.0 mi North 13.8 mph - N/A   Overcast
7:53 AM 28.9 °F 18.2 °F 19.9 °F 69% 30.26 in 10.0 mi North 13.8 mph 24.2 mph N/A   Overcast
8:53 AM 30.0 °F 19.1 °F 21.0 °F 69% 30.29 in 10.0 mi North 15.0 mph - N/A   Overcast
9:24 AM 30.9 °F 22.2 °F 21.0 °F 67% 30.26 in 10.0 mi North 10.4 mph - N/A   Overcast
9:50 AM 32.0 °F 21.6 °F 21.2 °F 64% 30.27 in 10.0 mi NNW 15.0 mph - N/A   Overcast
9:53 AM 32.0 °F 22.5 °F 21.9 °F 66% 30.30 in 10.0 mi North 12.7 mph - N/A   Overcast
10:10 AM 32.0 °F 22.1 °F 21.9 °F 66% 30.28 in 10.0 mi North 13.8 mph - N/A   Overcast
10:24 AM 32.0 °F 22.1 °F 21.9 °F 66% 30.27 in 10.0 mi North 13.8 mph - N/A   Overcast
10:53 AM 34.0 °F 25.0 °F 21.9 °F 61% 30.30 in 10.0 mi North 12.7 mph - N/A   Mostly Cloudy
11:53 AM 37.0 °F 30.4 °F 23.0 °F 57% 30.31 in 10.0 mi North 9.2 mph - N/A   Overcast
12:53 PM 39.0 °F 31.0 °F 23.0 °F 53% 30.30 in 10.0 mi North 13.8 mph 21.9 mph N/A   Mostly Cloudy
1:53 PM 39.9 °F 32.9 °F 21.0 °F 47% 30.29 in 10.0 mi North 11.5 mph 20.7 mph N/A   Mostly Cloudy
2:53 PM 39.0 °F 32.3 °F 21.0 °F 49% 30.29 in 10.0 mi North 10.4 mph - N/A   Clear
3:53 PM 41.0 °F 34.7 °F 21.9 °F 47% 30.29 in 10.0 mi North 10.4 mph - N/A   Clear
4:53 PM 39.9 °F 33.4 °F 21.9 °F 49% 30.30 in 10.0 mi North 10.4 mph - N/A   Clear
5:53 PM 39.0 °F 32.8 °F 23.0 °F 53% 30.32 in 10.0 mi NNE 9.2 mph - N/A   Clear
6:53 PM 36.0 °F 31.1 °F 21.9 °F 57% 30.33 in 10.0 mi NNE 5.8 mph - N/A   Clear
7:53 PM 34.0 °F 31.0 °F 21.9 °F 61% 30.35 in 10.0 mi NE 3.5 mph - N/A   Clear
8:53 PM 28.0 °F - 21.0 °F 75% 30.35 in 10.0 mi Calm Calm - N/A   Clear
9:53 PM 26.1 °F - 19.9 °F 78% 30.37 in 10.0 mi Calm Calm - N/A   Clear
10:53 PM 25.0 °F 17.1 °F 19.9 °F 81% 30.36 in 10.0 mi SSW 6.9 mph - N/A   Clear
11:53 PM 25.0 °F - 19.0 °F 78% 30.35 in 10.0 mi Calm Calm - N/A   Clear